Home > Weather > Howell > Past weeks

Flag for USA Past Weather in Howell, Michigan, USA — Yesterday and Last 2 Weeks

Now
71 °F

Light rain. Cloudy.


Feels Like: 65 °F
Forecast: 74 / 90 °F
Wind: No wind

Location: Livingston County Airport

Current Time: Jul 24, 2016 at 10:50:03 AM

Latest Report: Jul 24, 2016 at 10:14 AM


Visibility: 5 mi

Pressure: 29.97 "Hg

Humidity: 97%

Dew Point: 70 °F

Location of HowellLocation

Past Weather in Howell — Graph

°F

Howell Temperature Yesterday

Maximum temperature yesterday: 94 °F (at 4:14 PM)
Minimum temperature yesterday: 68 °F (at 5:15 AM)
Average temperature yesterday: 80 °F

High & Low Weather Summary for the Past Weeks

 TemperatureHumidityPressure
High94 °F (Jul 23, 4:14 PM)99% (Jul 13, 6:35 AM)30.28 "Hg (Jul 13, 6:35 AM)
Low53 °F (Jul 17, 5:55 AM)25% (Jul 23, 4:14 PM)29.80 "Hg (Jul 13, 6:35 PM)
Average75 °F66%30.03 "Hg
* Reported Jul 9 9:15 AM — Jul 24 9:35 AM, Howell, Weather by CustomWeather, © 2016

Note: Actual official high and low records may vary slightly from our data, if they occured in-between our weather recording intervals... More about our weather records

Advertising

Howell Weather History for the Previous 24 Hours

Scroll right to see more
 ConditionsComfort  
Time TempWeatherWind HumidityBarometerVisibility
9:35 AM
Sun, Jul 24
71 °FRain. Cloudy.No wind96%29.99 "Hg3 mi
9:15 AM71 °FHeavy rain. Cloudy.5 mph94%30.01 "Hg3 mi
8:55 AM72 °FRain. Cloudy.8 mph91%30.00 "Hg5 mi
8:35 AM74 °FRain. Cloudy.3 mph85%29.98 "Hg7 mi
8:15 AM76 °FOvercast.6 mph81%29.96 "Hg10 mi
7:55 AM75 °FOvercast.No wind80%29.96 "Hg10 mi
7:35 AM75 °FOvercast.3 mph78%29.95 "Hg10 mi
7:15 AM75 °FPassing clouds.No wind76%29.93 "Hg10 mi
6:55 AM74 °FPassing clouds.8 mph77%29.92 "Hg10 mi
6:35 AM74 °FClear.5 mph73%29.93 "Hg10 mi
6:15 AM75 °FClear.3 mph72%29.96 "Hg10 mi
5:55 AM76 °FPassing clouds.5 mph68%29.96 "Hg10 mi
5:35 AM76 °FPassing clouds.6 mph66%29.97 "Hg10 mi
5:15 AM76 °FPassing clouds.6 mph63%29.98 "Hg10 mi
4:55 AM75 °FPassing clouds.7 mph60%29.99 "Hg10 mi
4:34 AM75 °FClear.6 mph57%29.99 "Hg10 mi
4:15 AM75 °FClear.7 mph56%29.99 "Hg10 mi
3:55 AM76 °FClear.6 mph55%29.99 "Hg10 mi
3:34 AM76 °FClear.3 mph55%29.99 "Hg10 mi
3:15 AM75 °FPassing clouds.5 mph56%29.99 "Hg10 mi
2:55 AM75 °FPassing clouds.6 mph55%29.99 "Hg10 mi
2:34 AM76 °FClear.5 mph55%29.99 "Hg10 mi
2:15 AM76 °FClear.6 mph54%29.98 "Hg10 mi
1:55 AM76 °FClear.8 mph54%29.98 "Hg10 mi
1:34 AM77 °FClear.8 mph53%29.98 "Hg10 mi
1:15 AM78 °FClear.8 mph52%29.98 "Hg10 mi
12:54 AM78 °FClear.7 mph55%29.98 "Hg10 mi
12:35 AM77 °FClear.7 mph57%29.99 "Hg10 mi
12:15 AM78 °FClear.7 mph55%29.99 "Hg10 mi
11:54 PM
Sat, Jul 23
78 °FClear.8 mph55%29.99 "Hg10 mi
11:35 PM79 °FClear.6 mph56%29.99 "Hg10 mi
11:15 PM79 °FClear.8 mph56%29.99 "Hg10 mi
10:54 PM79 °FClear.9 mph56%30.00 "Hg10 mi
10:35 PM78 °FClear.6 mph58%30.00 "Hg10 mi
9:54 PM77 °FSunny.3 mph58%29.98 "Hg10 mi
9:35 PM79 °FSunny.3 mph52%29.99 "Hg10 mi
9:15 PM80 °FSunny.No wind51%29.98 "Hg10 mi
8:54 PM82 °FSunny.No wind46%29.98 "Hg10 mi
8:35 PM83 °FSunny.No wind45%29.98 "Hg10 mi
8:15 PM86 °FSunny.No wind36%29.97 "Hg10 mi
7:55 PM87 °FSunny.No wind35%29.96 "Hg10 mi
7:35 PM88 °FSunny.No wind33%29.96 "Hg10 mi
7:15 PM90 °FSunny.No wind27%29.97 "Hg10 mi
6:55 PM90 °FSunny.No wind25%29.97 "Hg10 mi
6:35 PM91 °FSunny.No wind26%29.97 "Hg10 mi
6:15 PM91 °FSunny.3 mph26%29.97 "Hg10 mi
5:55 PM92 °FSunny.No wind25%29.98 "Hg10 mi
5:35 PM92 °FSunny.3 mph26%29.98 "Hg10 mi
5:14 PM91 °FSunny.3 mph27%29.98 "Hg10 mi
4:55 PM91 °FSunny.6 mph28%29.98 "Hg10 mi
4:35 PM92 °FSunny.7 mph26%29.99 "Hg10 mi
4:14 PM94 °FSunny.3 mph25%29.99 "Hg10 mi
3:55 PM92 °FSunny.3 mph27%29.99 "Hg10 mi
3:35 PM91 °FSunny.5 mph28%29.99 "Hg10 mi
3:14 PM91 °FSunny.No wind31%30.00 "Hg10 mi
2:55 PM91 °FSunny.7 mph31%30.00 "Hg10 mi
2:35 PM92 °FSunny.5 mph31%30.00 "Hg10 mi
2:14 PM90 °FScattered clouds.No wind35%30.00 "Hg10 mi
1:55 PM90 °FScattered clouds.3 mph34%30.00 "Hg10 mi
1:35 PM90 °FSunny.6 mph38%30.00 "Hg10 mi
1:14 PM89 °FSunny.3 mph42%30.00 "Hg10 mi
12:55 PM89 °FSunny.6 mph45%30.01 "Hg10 mi
12:35 PM88 °FSunny.6 mph50%30.01 "Hg10 mi
12:14 PM86 °FSunny.No wind54%30.01 "Hg10 mi
11:55 AM86 °FSunny.No wind54%30.01 "Hg10 mi
11:35 AM85 °FSunny.3 mph57%30.01 "Hg10 mi
11:15 AM84 °FSunny.6 mph56%30.01 "Hg10 mi
10:55 AM84 °FSunny.3 mph60%30.00 "Hg10 mi
10:35 AM82 °FSunny.No wind65%30.00 "Hg10 mi
10:14 AM80 °FSunny.5 mph69%30.01 "Hg10 mi
Weather by CustomWeather, © 2016

See weather overviewHow to use our weather pages